Regional Weather Roundup
Issued by NWS Kansas City/Pleasant Hill, MO

Home | Current Version | Previous Version | Graphics & Text | Print | Product List | Glossary Off
Versions: 1 2 3 4 5 6 7 8 9 10 11 12 13 14 15 16 17 18 19 20 21 22 23 24 25 26 27 28 29 30 31 32 33 34 35 36 37 38 39 40 41 42 43 44 45 46 47 48 49 50

000
ASUS43 KEAX 190710
RWREAX

WEATHER ROUNDUP FOR EASTERN KANSAS AND NORTHWEST MISSOURI
NATIONAL WEATHER SERVICE KANSAS CITY/PLEASANT HILL MO
200 AM CDT SUN APR 19 2015

KSZ040-057-103>105-MOZ028-029-037-043-190800-
...KANSAS CITY METROPOLITAN AREA...

CITY           SKY/WX    TMP DP  RH WIND       PRES   REMARKS
K.C. INTL      LGT RAIN  58  58 100 S6        29.80S FOG
K.C. DOWNTOWN  RAIN      60  59  96 NW5       29.79S FOG
LEES SUMMIT    CLOUDY    58  58 100 CALM      29.79F FOG
OLATHE - IXD   CLOUDY    56  54  93 NW8       29.80S
OLATHE - OJC   CLOUDY    59  58  96 NW3       29.79F
LAWRENCE       CLOUDY    57  52  83 N5        29.79F

$$

MOZ001>008-011>017-020>025-030>033-038>040-044>046-053-054-190800-
...NORTHERN AND CENTRAL MISSOURI...

CITY           SKY/WX    TMP DP  RH WIND       PRES   REMARKS
ST. JOSEPH     LGT RAIN  54  54 100 NE3       29.78F FOG
MOSBY          CLOUDY    59  59 100 SW5       29.79F
WARRENSBURG    CLOUDY    59  55  88 CALM      29.78F FOG
WHITEMAN AFB   FOG       58  58 100 E1        29.77F VSB 1/2
CLINTON        FOG       59  59 100 CALM      29.78F VSB 1/4
SEDALIA        FOG       56  54  93 CALM      29.78F VSB 1/4
WARSAW         NOT AVBL
MARSHALL       CLOUDY    59  59 100 NE3       29.79F FOG
CHILLICOTHE      N/A     59  58  96 CALM      29.81F
KIRKSVILLE     CLOUDY    60  57  89 E6        29.81F

$$

MOZ041-047>049-056>058-063>065-088>090-097-190800-
...EASTERN AND SOUTHERN MISSOURI...

CITY           SKY/WX    TMP DP  RH WIND       PRES   REMARKS
ST. LOUIS INTL MOCLDY    64  56  75 SE6       29.79F
SPIRIT OF STL  MOCLDY    60  56  86 CALM      29.77F
COLUMBIA       CLEAR     59  54  83 SE3       29.78F
JEFFERSON CITY CLEAR     56  55  97 CALM      29.78F
MEXICO         PTCLDY   N/A N/A N/A E5        29.79
HANNIBAL       DRIZZLE   61  57  88 NE5       29.80F
ROLLA          CLOUDY    59  56  89 E6        29.77F
LEBANON        CLEAR     59  57  94 E3        29.78F
OSAGE BEACH    CLEAR     55  52  88 CALM      29.78F
SPRINGFIELD    FOG       52  52 100 CALM      29.77F VSB 3/4
BRANSON        CLEAR     57  57 100 CALM      29.79S
NEVADA         FOG       55  55 100 E3        29.79F VSB 1
JOPLIN         MOCLDY    58  56  93 S6        29.79S
WEST PLAINS    CLOUDY    59  56  89 CALM      29.77F

$$

IAZ060-094-KSZ022-034>040-054-083-096-NEZ052-066-093-190800-
...KANSAS...SOUTHEAST NEBRASKA AND IOWA...

CITY           SKY/WX    TMP DP  RH WIND       PRES   REMARKS
TOPEKA         CLOUDY    57  52  83 CALM      29.80F
MANHATTAN      LGT RAIN  54  53  97 SW5       29.80R
EMPORIA        RAIN      53  52  96 SW6       29.84R FOG
CHANUTE        RAIN      54  53  97 W12G21    29.84R
WICHITA        CLOUDY    54  51  90 S8        29.74S
OMAHA          CLOUDY    58  57  97 S5        29.78F
LINCOLN        CLOUDY    56  51  84 E3        29.78F
FALLS CITY     MOCLDY    56  54  93 CALM      29.77F
LAMONI         CLOUDY    59  58  96 S8        29.80F FOG
DES MOINES     CLOUDY    58  56  93 SE8       29.80F

$$



USA.gov is the U.S. government's official web portal to all federal, state and local government web resources and services.